St. Johns, AZ

10:29 PM MST on October 16, 2017 (GMT -0700)
Saint Johns Industrial

Weather History for KSJN - November, 2013

Change the Weather History Date:

Wednesday, November 20, 2013

  Actual Average (KLSB) Record (KLSB)
Temperature  
Mean Temperature 42 °F -  
Max Temperature 46 °F 64 °F 71 °F (2013)
Min Temperature 39 °F 28 °F 23 °F (2014)
Degree Days  
Heating Degree Days 22    
Moisture  
Dew Point 38 °F    
Average Humidity 82    
Maximum Humidity 100    
Minimum Humidity 65    
Precipitation  
Precipitation 0.12 in - - ()
Sea Level Pressure  
Sea Level Pressure 29.85 in    
Wind  
Wind Speed 4 mph (SSE)    
Max Wind Speed 15 mph    
Max Gust Speed -    
Visibility 10 miles    
Events Rain    
Averages and records for this station are not official NWS values.
T = Trace of Precipitation, MM = Missing Value Source: NWS Daily Summary

Daily Weather History Graph

Daily Weather History Graph

Search for Another Location

Airport or City:

Trip Planner

Search our weather history database for the weather conditions in past years. The results will help you decide how hot, cold, wet, or windy it might be!

Date:

Astronomy

Nov. 20, 2013 Rise Set
Actual Time 6:56 AM MST 5:10 PM MST
Civil Twilight 6:29 AM MST 5:37 PM MST
Nautical Twilight 5:58 AM MST 6:07 PM MST
Astronomical Twilight 5:28 AM MST 6:37 PM MST
Moon 7:55 PM MST (11/20) 9:23 AM MST (11/20)
Length of Visible Light 11h 08m
Length of Day
10h 13m
Waning Gibbous, 91% of the Moon is Illuminated
Nov 20
Waning Gibbous
Nov 25
Last Quarter
Dec 2
New
Dec 9
First Quarter
Dec 17
Full

Hourly Weather History & Observations

Time (MST) Temp. Windchill Dew Point Humidity Pressure Visibility Wind Dir Wind Speed Gust Speed Precip Events Conditions
12:54 AM 36.0 °F 33.3 °F 30.0 °F 79% 29.85 in 10.0 mi South 3.5 mph - N/A   Clear
1:54 AM 39.0 °F 36.8 °F 30.0 °F 70% 29.83 in 10.0 mi SSW 3.5 mph - N/A   Clear
2:54 AM 39.0 °F 34.8 °F 28.9 °F 67% 29.82 in 10.0 mi SSE 5.8 mph - N/A   Clear
3:54 AM 37.9 °F - 28.9 °F 70% 29.83 in 10.0 mi Calm Calm - N/A   Clear
4:54 AM 39.0 °F 36.8 °F 30.9 °F 73% 29.84 in 10.0 mi SSE 3.5 mph - N/A   Scattered Clouds
5:54 AM 41.0 °F 35.2 °F 32.0 °F 70% 29.85 in 10.0 mi South 9.2 mph - N/A   Overcast
6:54 AM 43.0 °F - 32.0 °F 65% 29.87 in 10.0 mi Calm Calm - N/A   Overcast
7:54 AM 42.1 °F 38.4 °F 35.1 °F 76% 29.89 in 10.0 mi North 5.8 mph - 0.00 in Rain Light Rain
8:54 AM 43.0 °F 40.3 °F 39.0 °F 86% 29.91 in 10.0 mi SSE 4.6 mph - 0.00 in Rain Light Rain
9:54 AM 45.0 °F 41.2 °F 42.1 °F 90% 29.88 in 10.0 mi ESE 6.9 mph - 0.05 in Rain Light Rain
10:54 AM 46.9 °F - 42.1 °F 83% 29.89 in 10.0 mi SE 3.5 mph - 0.02 in Rain Light Rain
11:54 AM 48.9 °F - 43.0 °F 80% 29.85 in 10.0 mi SSW 3.5 mph - 0.01 in   Overcast
12:54 PM 50.0 °F - 45.0 °F 83% 29.83 in 10.0 mi SE 9.2 mph - 0.02 in Rain Light Rain
1:54 PM 50.0 °F - 42.1 °F 74% 29.79 in 10.0 mi Variable 4.6 mph - 0.00 in   Overcast
2:54 PM 48.0 °F - 39.0 °F 71% 29.81 in 8.0 mi WSW 8.1 mph - 0.01 in Rain Light Rain
3:54 PM 48.0 °F - 42.1 °F 80% 29.82 in 10.0 mi NE 3.5 mph - 0.01 in Rain Light Rain
4:54 PM 46.0 °F 43.1 °F 43.0 °F 89% 29.84 in 10.0 mi West 5.8 mph - 0.00 in Rain Light Rain
5:54 PM 46.0 °F 43.9 °F 43.0 °F 89% 29.85 in 10.0 mi NNE 4.6 mph - 0.01 in   Overcast
6:54 PM 45.0 °F 42.6 °F 44.1 °F 97% 29.85 in 10.0 mi ESE 4.6 mph - N/A   Overcast
7:54 PM 45.0 °F - 43.0 °F 93% 29.86 in 10.0 mi Calm Calm - N/A   Mostly Cloudy
8:54 PM 42.1 °F 40.2 °F 42.1 °F 100% 29.87 in 6.0 mi West 3.5 mph - N/A   Mostly Cloudy
9:54 PM 41.0 °F - 39.9 °F 96% 29.88 in 10.0 mi Calm Calm - N/A   Clear
10:54 PM 42.1 °F - 39.9 °F 92% 29.87 in 10.0 mi Calm Calm - N/A   Overcast
11:54 PM 42.1 °F 39.2 °F 39.9 °F 92% 29.86 in 10.0 mi South 4.6 mph - N/A   Overcast